Location: Pedholt
(56.0260°N, 10.2097°E)
Time: 00:54:04
(UTC+00:00)

A-11 Canister half - Pass Details

Date: 06 August 2021
Orbit: 1514 x 1685 km, 47.2° (Epoch: 16 September)

Event Time Altitude Azimuth Distance (km) Brightness Sun altitude
Rises 14:56:45 0° 217° (SW) 4,752 12.4 34.0°
Reaches altitude 10° 15:00:07 10° 209° (SSW) 3,794 11.9 33.5°
Maximum altitude 15:08:30 35° 149° (SSE) 2,422 10.2 32.4°
Drops below altitude 10° 15:17:07 10° 89° (E) 3,916 10.7 31.3°
Sets 15:20:39 0° 81° (E) 4,922 11.1 30.8°
